ALSAT 1B

Satellite information

Favourite Embed

Satellite Type and Status

PAYLOADIN ORBIT

Key statistics

Satellite ALSAT 1B at a glance.

Uptime

3324

Days in orbit

Revolutions

≈ 14.7

Per day

Orbit

SSO

Sun Synchronous Orbit

Inclination

97.8

Latest

Satellite identification and parameters

Extended collection of information and parameters for ALSAT 1B.

Object identification

Identified? True

Debris? False

Object name: ALSAT 1B

International designator: 2016-059C

Object number (NORAD): 41785

Object ID (CCSDS): 41785

Country: ALGERIA (ALG)

Current information (Y/N): Y

RCS size: MEDIUM

Orbital parameters

Period: 97.826 minutes

Inclination: 97.7843 deg

SMA: 7032.828 km

Apoapsis: 660.413 km

Periapsis: 648.972 km

RAAN: 319.1728 deg

Eccentricy: 0.00081341

Argument of periapsis: 232.6608 deg

Mean anomaly: 127.386 deg

Mean motion: 14.72000013 rev/day

Mean motion (dot): 0.00000611 rev/day2

B* drag term: 0.00010486259 1/REarth

Two-line elements (TLE)

Creation date: Nov. 1, 2025, 7:40 p.m.

Reference frame: TEME

Reference center: EARTH

Epoch: Nov. 1, 2025, 2:43 p.m. UTC

TLE line 0: 0 ALSAT 1B

TLE line 1: 1 41785U 16059C 25305.61327259 .00000611 00000-0 10486-3 0 9996

TLE line 2: 2 41785 97.7843 319.1728 0008134 232.6608 127.3860 14.72000013487092

Live tracking on map

Real-time ground track for satellite ALSAT 1B.

In-orbit conjunctions

There are no conjunctions computed for ALSAT 1B, at the moment. Check back to stay up to date, as we update our databases every day.

Go to all conjunctions

Associated space launch

ScatSat-1 is a microsatellite of 371 kg and a mission life of 5 years. It is tasked to provide weather forecasting, cyclone prediction, and tracking services to India. This launch will also carry 7 other satellites, the 117kg Alsat-2B, the 103kg Alsat-1B & the 7kg Alsat-1N earth observation satellites for Algerian Space Agency, the 44kg Pathfinder-1 earth imager for Blacksky, the 8kg CanX-7 deorbiter for UTIAS Space Flight Laboratory, the 10kg Pratham Ionospheric Tomographer for IIT Bombay and the 5.25kg PiSat earth imager for PES University.

ALSAT 1B was lifted into orbit during the mission ‘PSLV | SCATSat-1’, on board a PSLV space rocket.

The launch took place on Sept. 26, 2016, 3:42 a.m. from Satish Dhawan Space Centre First Launch Pad.

For more information about the launch, click the button.

Launch to space PSLV | SCATSat-1
PSLV | SCATSat-1

Agency: N/A

Status: Launch Successful

Launch date: Sept. 26, 2016, 3:42 a.m. UTC

Rocket: PSLV

Launch pad: Satish Dhawan Space Centre First Launch Pad

Location: Satish Dhawan Space Centre, India

...

Latest news about this satellite

There are no fresh news available about this satellite. Check back as we update our databases every day.


Newsletter sign-up

Weekly statistics, charts and insights to help you stay on top of the space industry.